DAL8933 KLAX-KSEA

Flight info

Callsign DAL8933
Flight time 2h 17m
Altitude 34000
Route LADYJ4 CSTRO SHIMR LKV HAWKZ8
Aircraft A321/M-SDE3FGHIRWY/LB1

Departure

Time 2026-05-08 02:50
Airport Los Angeles International Airport (KLAX)

Arrival

Time 2026-05-08 05:07
Airport Seattle–Tacoma International Airport (KSEA)
Time Latitude Longitude Altitude Speed Heading
2026-05-08 02:14 33.94638 -118.40844 126 ft 0 kts 86°
2026-05-08 02:38 33.94637 -118.40854 126 ft 3 kts 86°
2026-05-08 02:38 33.94633 -118.40876 121 ft 3 kts 37°
2026-05-08 02:38 33.94615 -118.40885 121 ft 3 kts 13°
2026-05-08 02:38 33.94606 -118.40888 122 ft 0 kts
2026-05-08 02:45 33.94612 -118.40891 121 ft 0 kts 345°
2026-05-08 02:46 33.94635 -118.40900 124 ft 9 kts 342°
2026-05-08 02:46 33.94709 -118.40918 124 ft 11 kts 356°
2026-05-08 02:46 33.94770 -118.40895 123 ft 8 kts 27°
2026-05-08 02:47 33.94817 -118.40864 124 ft 8 kts 40°
2026-05-08 02:47 33.94841 -118.40802 125 ft 10 kts 74°
2026-05-08 02:47 33.94856 -118.40698 125 ft 17 kts 81°
2026-05-08 02:47 33.94872 -118.40544 125 ft 19 kts 83°
2026-05-08 02:48 33.94888 -118.40383 124 ft 20 kts 83°
2026-05-08 02:48 33.94905 -118.40217 123 ft 20 kts 83°
2026-05-08 02:48 33.94922 -118.40045 124 ft 20 kts 83°
2026-05-08 02:48 33.94947 -118.39938 122 ft 12 kts 48°
2026-05-08 02:49 33.95020 -118.39928 124 ft 13 kts 328°
2026-05-08 02:49 33.95031 -118.40048 123 ft 19 kts 262°
2026-05-08 02:49 33.94993 -118.40409 126 ft 77 kts 263°
2026-05-08 02:49 33.94900 -118.41285 125 ft 132 kts 263°
2026-05-08 02:50 33.94769 -118.42552 167 ft 169 kts 262°
2026-05-08 02:50 33.94607 -118.44013 587 ft 180 kts 262°
2026-05-08 02:50 33.94457 -118.45507 1214 ft 179 kts 263°
2026-05-08 02:50 33.94331 -118.46997 1834 ft 179 kts 266°
2026-05-08 02:51 33.94266 -118.48557 2007 ft 194 kts 269°
2026-05-08 02:51 33.94220 -118.50276 2114 ft 218 kts 269°
2026-05-08 02:51 33.94135 -118.52201 2351 ft 242 kts 266°
2026-05-08 02:51 33.93990 -118.54290 2794 ft 256 kts 266°
2026-05-08 02:52 33.93821 -118.56421 3539 ft 256 kts 265°
2026-05-08 02:52 33.93644 -118.58560 4244 ft 257 kts 266°
2026-05-08 02:52 33.93585 -118.60710 4934 ft 257 kts 278°
2026-05-08 02:52 33.94083 -118.62770 5568 ft 259 kts 298°
2026-05-08 02:53 33.95136 -118.64511 6123 ft 264 kts 317°
2026-05-08 02:53 33.96648 -118.65795 6683 ft 268 kts 328°
2026-05-08 02:53 33.98279 -118.66905 7297 ft 271 kts 336°
2026-05-08 02:53 34.00099 -118.67531 7941 ft 275 kts 352°
2026-05-08 02:54 34.02022 -118.67553 8575 ft 278 kts
2026-05-08 02:54 34.03967 -118.67419 9120 ft 279 kts
2026-05-08 02:54 34.05916 -118.67295 9703 ft 282 kts
2026-05-08 02:54 34.07884 -118.67140 10250 ft 285 kts
2026-05-08 02:55 34.09842 -118.66700 10765 ft 288 kts 10°
2026-05-08 02:55 34.13813 -118.65753 11876 ft 293 kts 11°
2026-05-08 02:55 34.15822 -118.65278 12444 ft 296 kts 11°
2026-05-08 02:56 34.17852 -118.64798 13027 ft 299 kts 12°
2026-05-08 02:56 34.19901 -118.64313 13632 ft 301 kts 12°
2026-05-08 02:56 34.21961 -118.63825 14182 ft 303 kts 12°
2026-05-08 02:56 34.24032 -118.63536 14712 ft 305 kts
2026-05-08 02:57 34.26156 -118.63661 15259 ft 307 kts 353°
2026-05-08 02:57 34.28262 -118.64125 15815 ft 308 kts 349°
2026-05-08 02:57 34.30368 -118.64614 16378 ft 308 kts 349°
2026-05-08 02:57 34.32481 -118.65098 16958 ft 309 kts 350°
2026-05-08 02:58 34.34592 -118.65575 17542 ft 309 kts 350°
2026-05-08 02:58 34.36706 -118.66051 18145 ft 309 kts 349°
2026-05-08 02:58 34.38820 -118.66531 18689 ft 309 kts 349°
2026-05-08 02:58 34.40929 -118.67013 19220 ft 308 kts 349°
2026-05-08 02:59 34.43028 -118.67493 19758 ft 306 kts 350°
2026-05-08 02:59 34.45116 -118.67933 20314 ft 303 kts 351°
2026-05-08 02:59 34.47200 -118.68340 20801 ft 304 kts 352°
2026-05-08 02:59 34.49317 -118.68741 21030 ft 314 kts 352°
2026-05-08 03:00 34.51519 -118.69155 21162 ft 327 kts 352°
2026-05-08 03:00 34.53811 -118.69589 21302 ft 340 kts 352°
2026-05-08 03:00 34.56190 -118.70045 21429 ft 352 kts 352°
2026-05-08 03:00 34.58654 -118.70525 21557 ft 365 kts 352°
2026-05-08 03:01 34.61168 -118.71020 21699 ft 376 kts 351°
2026-05-08 03:01 34.63788 -118.71535 21827 ft 387 kts 352°
2026-05-08 03:01 34.66484 -118.72064 21955 ft 397 kts 352°
2026-05-08 03:01 34.69249 -118.72609 22099 ft 407 kts 351°
2026-05-08 03:02 34.72005 -118.73507 22358 ft 413 kts 341°
2026-05-08 03:02 34.74633 -118.74967 22665 ft 418 kts 332°
2026-05-08 03:02 34.77173 -118.76725 23029 ft 421 kts 332°
2026-05-08 03:02 34.79733 -118.78489 23387 ft 424 kts 332°
2026-05-08 03:03 34.82305 -118.80254 23764 ft 426 kts 332°
2026-05-08 03:03 34.84897 -118.82030 24052 ft 429 kts 332°
2026-05-08 03:03 34.87499 -118.83809 24384 ft 430 kts 332°
2026-05-08 03:03 34.90115 -118.85601 24696 ft 432 kts 333°
2026-05-08 03:04 34.92734 -118.87398 25032 ft 433 kts 332°
2026-05-08 03:04 34.95364 -118.89210 25317 ft 435 kts 333°
2026-05-08 03:04 34.98003 -118.91032 25638 ft 437 kts 333°
2026-05-08 03:04 35.00654 -118.92862 25909 ft 439 kts 332°
2026-05-08 03:05 35.03325 -118.94704 26190 ft 441 kts 332°
2026-05-08 03:05 35.06001 -118.96554 26449 ft 444 kts 332°
2026-05-08 03:05 35.08704 -118.98423 26695 ft 446 kts 332°
2026-05-08 03:05 35.11411 -119.00294 26973 ft 448 kts 331°
2026-05-08 03:06 35.14131 -119.02180 27251 ft 450 kts 331°
2026-05-08 03:06 35.16830 -119.04052 27509 ft 452 kts 331°
2026-05-08 03:06 35.19567 -119.05950 27775 ft 453 kts 332°
2026-05-08 03:06 35.22315 -119.07857 28032 ft 455 kts 331°
2026-05-08 03:07 35.25078 -119.09777 28275 ft 457 kts 331°
2026-05-08 03:07 35.27851 -119.11706 28533 ft 459 kts 331°
2026-05-08 03:07 35.30632 -119.13640 28790 ft 460 kts 331°
2026-05-08 03:07 35.33422 -119.15578 29047 ft 462 kts 331°
2026-05-08 03:08 35.36223 -119.17526 29298 ft 464 kts 331°
2026-05-08 03:08 35.39025 -119.19477 29632 ft 463 kts 331°
2026-05-08 03:08 35.41821 -119.21430 29990 ft 462 kts 331°
2026-05-08 03:08 35.44684 -119.23198 30300 ft 460 kts 339°
2026-05-08 03:09 35.47716 -119.24413 30587 ft 458 kts 347°
2026-05-08 03:09 35.50813 -119.25327 30867 ft 458 kts 347°
2026-05-08 03:09 35.53913 -119.26245 31153 ft 457 kts 347°
2026-05-08 03:09 35.57002 -119.27167 31452 ft 457 kts 347°
2026-05-08 03:10 35.60091 -119.28093 31745 ft 456 kts 347°
2026-05-08 03:10 35.63178 -119.29019 32040 ft 456 kts 346°
2026-05-08 03:10 35.66250 -119.29941 32348 ft 455 kts 346°
2026-05-08 03:10 35.69322 -119.30863 32645 ft 454 kts 346°
2026-05-08 03:11 35.72351 -119.31769 32940 ft 453 kts 346°
2026-05-08 03:11 35.75415 -119.32683 33247 ft 452 kts 347°
2026-05-08 03:11 35.78474 -119.33596 33544 ft 452 kts 346°
2026-05-08 03:11 35.81523 -119.34511 33832 ft 451 kts 346°
2026-05-08 03:12 35.84572 -119.35429 33988 ft 450 kts 346°
2026-05-08 03:12 35.90615 -119.37256 34009 ft 445 kts 346°
2026-05-08 03:13 35.96633 -119.39070 34009 ft 445 kts 346°
2026-05-08 03:13 36.02646 -119.40885 34008 ft 444 kts 346°
2026-05-08 03:14 36.08656 -119.42703 34013 ft 444 kts 346°
2026-05-08 03:14 36.14663 -119.44527 34018 ft 444 kts 346°
2026-05-08 03:15 36.20630 -119.46341 34023 ft 444 kts 346°
2026-05-08 03:15 36.26625 -119.48165 34032 ft 444 kts 346°
2026-05-08 03:16 36.32636 -119.49994 34027 ft 444 kts 346°
2026-05-08 03:16 36.38635 -119.51819 34018 ft 444 kts 346°
2026-05-08 03:17 36.44641 -119.53653 34022 ft 444 kts 346°
2026-05-08 03:17 36.50647 -119.55493 33997 ft 445 kts 346°
2026-05-08 03:18 36.56661 -119.57346 34008 ft 445 kts 346°
2026-05-08 03:18 36.62637 -119.59179 34017 ft 445 kts 346°
2026-05-08 03:19 36.68656 -119.61026 34013 ft 445 kts 346°
2026-05-08 03:19 36.74674 -119.62874 34023 ft 445 kts 346°
2026-05-08 03:20 36.80685 -119.64732 34020 ft 445 kts 346°
2026-05-08 03:20 36.86708 -119.66598 34024 ft 445 kts 345°
2026-05-08 03:21 36.92721 -119.68460 34010 ft 445 kts 346°
2026-05-08 03:21 36.98729 -119.70324 34014 ft 445 kts 346°
2026-05-08 03:22 37.04742 -119.72191 34011 ft 445 kts 346°
2026-05-08 03:22 37.10754 -119.74053 34020 ft 445 kts 346°
2026-05-08 03:23 37.16726 -119.75916 34028 ft 445 kts 345°
2026-05-08 03:23 37.22741 -119.77792 34037 ft 445 kts 346°
2026-05-08 03:24 37.28747 -119.79669 34048 ft 445 kts 345°
2026-05-08 03:24 37.34754 -119.81561 34049 ft 445 kts 345°
2026-05-08 03:25 37.40768 -119.83446 34041 ft 447 kts 345°
2026-05-08 03:25 37.45784 -119.85022 34058 ft 446 kts 345°
2026-05-08 03:26 37.51811 -119.86916 34064 ft 446 kts 345°
2026-05-08 03:26 37.58817 -119.89118 34061 ft 446 kts 345°
2026-05-08 03:27 37.63862 -119.90706 34085 ft 446 kts 345°
2026-05-08 03:27 37.69854 -119.92600 34086 ft 445 kts 345°
2026-05-08 03:28 37.75851 -119.94504 34067 ft 446 kts 345°
2026-05-08 03:28 37.81879 -119.96419 34065 ft 446 kts 345°
2026-05-08 03:29 37.87903 -119.98335 34079 ft 446 kts 345°
2026-05-08 03:29 37.93931 -120.00256 34093 ft 447 kts 345°
2026-05-08 03:30 38.02976 -120.03135 34105 ft 446 kts 345°
2026-05-08 03:31 38.15026 -120.06987 34115 ft 446 kts 345°
2026-05-08 03:32 38.24054 -120.09689 34123 ft 447 kts 352°
2026-05-08 03:32 38.30260 -120.10268 34135 ft 447 kts 355°
2026-05-08 03:33 38.36464 -120.10832 34163 ft 447 kts 354°
2026-05-08 03:33 38.42660 -120.11411 34145 ft 447 kts 359°
2026-05-08 03:34 38.48902 -120.11971 34160 ft 450 kts 355°
2026-05-08 03:34 38.55147 -120.12532 34175 ft 449 kts 354°
2026-05-08 03:35 38.61383 -120.13110 34168 ft 449 kts 354°
2026-05-08 03:35 38.68373 -120.13754 34186 ft 449 kts 354°
2026-05-08 03:36 38.74613 -120.14325 34177 ft 449 kts 354°
2026-05-08 03:36 38.80840 -120.14896 34175 ft 449 kts 354°
2026-05-08 03:37 38.87082 -120.15479 34175 ft 449 kts 354°
2026-05-08 03:37 38.93315 -120.16053 34176 ft 449 kts 354°
2026-05-08 03:38 38.98502 -120.16528 34178 ft 449 kts 354°
2026-05-08 03:38 39.04734 -120.17100 34201 ft 449 kts 354°
2026-05-08 03:39 39.10933 -120.17678 34224 ft 449 kts 354°
2026-05-08 03:39 39.17164 -120.18255 34247 ft 449 kts 354°
2026-05-08 03:40 39.23406 -120.18830 34277 ft 449 kts 354°
2026-05-08 03:40 39.29640 -120.19415 34279 ft 449 kts 354°
2026-05-08 03:41 39.35873 -120.20002 34283 ft 449 kts 354°
2026-05-08 03:41 39.38985 -120.20294 34106 ft 449 kts 354°
2026-05-08 03:41 39.42098 -120.20588 34106 ft 448 kts 354°
2026-05-08 03:42 39.48325 -120.21178 34105 ft 448 kts 354°
2026-05-08 03:42 39.54552 -120.21757 34102 ft 448 kts 354°
2026-05-08 03:43 39.60768 -120.22339 34098 ft 448 kts 354°
2026-05-08 03:43 39.66946 -120.22923 34098 ft 448 kts 354°
2026-05-08 03:44 39.73162 -120.23501 34092 ft 448 kts 354°
2026-05-08 03:44 39.79379 -120.24086 34086 ft 448 kts 354°
2026-05-08 03:45 39.85596 -120.24687 34080 ft 448 kts 354°
2026-05-08 03:45 39.91815 -120.25284 34075 ft 447 kts 354°
2026-05-08 03:46 39.98028 -120.25872 34061 ft 447 kts 354°
2026-05-08 03:46 40.04241 -120.26454 34061 ft 447 kts 354°
2026-05-08 03:47 40.10452 -120.27038 34066 ft 447 kts 354°
2026-05-08 03:47 40.16604 -120.27623 34081 ft 446 kts 354°
2026-05-08 03:48 40.22794 -120.28218 34093 ft 446 kts 354°
2026-05-08 03:48 40.28981 -120.28820 34114 ft 445 kts 354°
2026-05-08 03:49 40.35159 -120.29415 34120 ft 445 kts 353°
2026-05-08 03:49 40.41343 -120.30013 34119 ft 445 kts 354°
2026-05-08 03:50 40.47520 -120.30612 34122 ft 445 kts 354°
2026-05-08 03:50 40.53688 -120.31210 34108 ft 444 kts 354°
2026-05-08 03:51 40.59852 -120.31799 34093 ft 444 kts 354°
2026-05-08 03:51 40.65970 -120.32396 34076 ft 443 kts 354°
2026-05-08 03:52 40.72126 -120.33003 34071 ft 443 kts 354°
2026-05-08 03:52 40.78282 -120.33602 34069 ft 443 kts 354°
2026-05-08 03:53 40.84432 -120.34202 34080 ft 443 kts 354°
2026-05-08 03:53 40.90572 -120.34800 34085 ft 442 kts 354°
2026-05-08 03:54 40.96704 -120.35400 34089 ft 442 kts 354°
2026-05-08 03:54 41.02794 -120.35999 34084 ft 442 kts 354°
2026-05-08 03:55 41.08926 -120.36607 34084 ft 442 kts 354°
2026-05-08 03:55 41.15051 -120.37208 34090 ft 441 kts 354°
2026-05-08 03:56 41.21171 -120.37802 34111 ft 440 kts 354°
2026-05-08 03:56 41.27276 -120.38402 34120 ft 440 kts 354°
2026-05-08 03:57 41.33378 -120.39007 34127 ft 439 kts 354°
2026-05-08 03:57 41.39442 -120.39619 34135 ft 439 kts 354°
2026-05-08 03:58 41.45539 -120.40228 34141 ft 439 kts 353°
2026-05-08 03:58 41.51635 -120.40834 34094 ft 438 kts 353°
2026-05-08 03:59 41.57710 -120.41439 34103 ft 438 kts 353°
2026-05-08 03:59 41.63779 -120.42046 34098 ft 437 kts 353°
2026-05-08 04:00 41.69853 -120.42652 34100 ft 437 kts 353°
2026-05-08 04:00 41.75913 -120.43257 34099 ft 437 kts 353°
2026-05-08 04:01 41.81980 -120.43863 34118 ft 437 kts 353°
2026-05-08 04:01 41.87999 -120.44472 34137 ft 436 kts 353°
2026-05-08 04:02 41.94057 -120.45080 34155 ft 436 kts 353°
2026-05-08 04:02 42.00104 -120.45686 34163 ft 435 kts 353°
2026-05-08 04:03 42.06147 -120.46296 34173 ft 435 kts 353°
2026-05-08 04:03 42.15198 -120.47232 34173 ft 435 kts 353°
2026-05-08 04:04 42.21236 -120.47849 34135 ft 435 kts 353°
2026-05-08 04:04 42.27270 -120.48455 34134 ft 434 kts 353°
2026-05-08 04:05 42.33303 -120.49065 34130 ft 434 kts 353°
2026-05-08 04:05 42.39330 -120.49685 34123 ft 434 kts 353°
2026-05-08 04:06 42.45315 -120.50301 34119 ft 434 kts 353°
2026-05-08 04:06 42.51172 -120.51908 34104 ft 428 kts 336°
2026-05-08 04:07 42.56610 -120.55150 34099 ft 427 kts 334°
2026-05-08 04:07 42.62038 -120.58426 34109 ft 427 kts 334°
2026-05-08 04:08 42.67471 -120.61704 34115 ft 426 kts 334°
2026-05-08 04:08 42.72890 -120.64987 34099 ft 426 kts 333°
2026-05-08 04:09 42.78302 -120.68288 34098 ft 426 kts 333°
2026-05-08 04:09 42.83712 -120.71586 34096 ft 426 kts 333°
2026-05-08 04:10 42.89079 -120.74864 34096 ft 426 kts 333°
2026-05-08 04:10 42.94488 -120.78174 34095 ft 426 kts 333°
2026-05-08 04:11 42.99893 -120.81493 34090 ft 426 kts 333°
2026-05-08 04:11 43.05304 -120.84825 34087 ft 426 kts 333°
2026-05-08 04:12 43.10713 -120.88149 34083 ft 426 kts 333°
2026-05-08 04:12 43.16130 -120.91480 34084 ft 426 kts 333°
2026-05-08 04:13 43.21509 -120.94805 34090 ft 426 kts 333°
2026-05-08 04:13 43.26909 -120.98151 34087 ft 426 kts 333°
2026-05-08 04:14 43.32312 -121.01503 34093 ft 425 kts 333°
2026-05-08 04:14 43.37700 -121.04860 34091 ft 425 kts 333°
2026-05-08 04:15 43.43088 -121.08219 34094 ft 424 kts 333°
2026-05-08 04:15 43.48473 -121.11582 34089 ft 424 kts 333°
2026-05-08 04:16 43.53807 -121.14916 34084 ft 424 kts 333°
2026-05-08 04:16 43.59183 -121.18280 34079 ft 424 kts 333°
2026-05-08 04:17 43.64552 -121.21652 34080 ft 424 kts 333°
2026-05-08 04:17 43.69932 -121.25032 34075 ft 424 kts 333°
2026-05-08 04:18 43.75311 -121.28415 34071 ft 425 kts 333°
2026-05-08 04:18 43.80693 -121.31813 34062 ft 425 kts 333°
2026-05-08 04:19 43.86084 -121.35224 34064 ft 426 kts 333°
2026-05-08 04:19 43.91440 -121.38617 34076 ft 426 kts 333°
2026-05-08 04:20 43.96831 -121.42041 34084 ft 426 kts 333°
2026-05-08 04:20 44.02214 -121.45466 34088 ft 425 kts 333°
2026-05-08 04:21 44.07597 -121.48906 34083 ft 425 kts 333°
2026-05-08 04:21 44.12978 -121.52344 34089 ft 426 kts 333°
2026-05-08 04:22 44.18367 -121.55794 34077 ft 425 kts 333°
2026-05-08 04:22 44.23742 -121.59251 34067 ft 425 kts 333°
2026-05-08 04:23 44.29114 -121.62724 34064 ft 425 kts 333°
2026-05-08 04:23 44.34458 -121.66162 34067 ft 425 kts 333°
2026-05-08 04:24 44.39835 -121.69622 34066 ft 425 kts 333°
2026-05-08 04:24 44.45211 -121.73095 34064 ft 425 kts 333°
2026-05-08 04:25 44.49673 -121.75994 34075 ft 425 kts 333°
2026-05-08 04:25 44.55037 -121.79478 34057 ft 424 kts 333°
2026-05-08 04:26 44.57744 -121.81233 33278 ft 433 kts 333°
2026-05-08 04:26 44.60519 -121.83035 32926 ft 446 kts 333°
2026-05-08 04:26 44.63358 -121.84885 32567 ft 452 kts 332°
2026-05-08 04:26 44.66218 -121.86753 32218 ft 454 kts 332°
2026-05-08 04:27 44.69086 -121.88629 31877 ft 454 kts 332°
2026-05-08 04:27 44.71948 -121.90501 31528 ft 452 kts 332°
2026-05-08 04:27 44.74793 -121.92363 31186 ft 450 kts 332°
2026-05-08 04:27 44.77624 -121.94217 30845 ft 447 kts 332°
2026-05-08 04:28 44.80440 -121.96066 30509 ft 446 kts 333°
2026-05-08 04:28 44.83212 -121.97887 30198 ft 444 kts 332°
2026-05-08 04:28 44.85997 -121.99719 29823 ft 441 kts 332°
2026-05-08 04:28 44.88765 -122.01542 29440 ft 438 kts 332°
2026-05-08 04:29 44.91527 -122.03362 29053 ft 436 kts 332°
2026-05-08 04:29 44.94271 -122.05169 28684 ft 434 kts 332°
2026-05-08 04:29 44.97002 -122.06971 28315 ft 432 kts 332°
2026-05-08 04:29 44.99723 -122.08771 27952 ft 430 kts 332°
2026-05-08 04:30 45.02429 -122.10560 27606 ft 429 kts 332°
2026-05-08 04:30 45.05127 -122.12346 27252 ft 428 kts 332°
2026-05-08 04:30 45.07817 -122.14130 26904 ft 425 kts 332°
2026-05-08 04:30 45.10490 -122.15902 26559 ft 423 kts 332°
2026-05-08 04:31 45.13153 -122.17668 26216 ft 422 kts 331°
2026-05-08 04:31 45.15811 -122.19434 25876 ft 420 kts 331°
2026-05-08 04:31 45.18449 -122.21190 25546 ft 418 kts 331°
2026-05-08 04:31 45.21078 -122.22945 25217 ft 417 kts 331°
2026-05-08 04:32 45.23701 -122.24703 24889 ft 416 kts 331°
2026-05-08 04:32 45.26309 -122.26451 24563 ft 411 kts 331°
2026-05-08 04:32 45.28874 -122.28162 24232 ft 404 kts 331°
2026-05-08 04:32 45.31394 -122.29843 23916 ft 396 kts 331°
2026-05-08 04:33 45.33875 -122.31497 23593 ft 390 kts 330°
2026-05-08 04:33 45.36312 -122.33132 23214 ft 385 kts 330°
2026-05-08 04:33 45.38727 -122.34755 22845 ft 383 kts 330°
2026-05-08 04:33 45.41131 -122.36372 22491 ft 381 kts 330°
2026-05-08 04:34 45.43518 -122.37981 22146 ft 378 kts 330°
2026-05-08 04:34 45.45860 -122.39563 22059 ft 377 kts 330°
2026-05-08 04:34 45.48232 -122.41167 22081 ft 378 kts 330°
2026-05-08 04:34 45.50608 -122.42769 22082 ft 378 kts 330°
2026-05-08 04:35 45.52989 -122.44373 22081 ft 378 kts 330°
2026-05-08 04:35 45.55373 -122.45981 22083 ft 378 kts 330°
2026-05-08 04:35 45.57754 -122.47589 22081 ft 378 kts 330°
2026-05-08 04:35 45.60131 -122.49201 22092 ft 379 kts 330°
2026-05-08 04:36 45.62513 -122.50819 22091 ft 379 kts 330°
2026-05-08 04:36 45.64894 -122.52433 22091 ft 379 kts 330°
2026-05-08 04:36 45.67281 -122.54053 22091 ft 379 kts 330°
2026-05-08 04:36 45.69669 -122.55676 22101 ft 379 kts 330°
2026-05-08 04:37 45.72050 -122.57294 22084 ft 379 kts 330°
2026-05-08 04:37 45.74457 -122.58759 22091 ft 382 kts 337°
2026-05-08 04:37 45.77042 -122.59722 22093 ft 386 kts 346°
2026-05-08 04:37 45.79703 -122.60357 22094 ft 388 kts 346°
2026-05-08 04:38 45.82361 -122.61004 22101 ft 388 kts 346°
2026-05-08 04:38 45.85019 -122.61662 22100 ft 388 kts 346°
2026-05-08 04:38 45.87673 -122.62328 22100 ft 388 kts 346°
2026-05-08 04:38 45.90331 -122.62995 22089 ft 388 kts 346°
2026-05-08 04:39 45.92987 -122.63658 22098 ft 388 kts 346°
2026-05-08 04:39 45.95649 -122.64319 22096 ft 388 kts 346°
2026-05-08 04:39 45.98308 -122.64976 22099 ft 388 kts 346°
2026-05-08 04:39 46.00969 -122.65635 22108 ft 389 kts 346°
2026-05-08 04:40 46.03634 -122.66298 22104 ft 389 kts 346°
2026-05-08 04:40 46.06301 -122.66965 22106 ft 389 kts 346°
2026-05-08 04:40 46.08965 -122.67631 22110 ft 388 kts 346°
2026-05-08 04:40 46.11632 -122.68260 22107 ft 388 kts 347°
2026-05-08 04:41 46.14309 -122.68814 22107 ft 389 kts 348°
2026-05-08 04:41 46.16990 -122.69324 22110 ft 389 kts 348°
2026-05-08 04:41 46.19679 -122.69823 22112 ft 389 kts 348°
2026-05-08 04:41 46.22363 -122.70326 22111 ft 389 kts 348°
2026-05-08 04:42 46.25041 -122.70836 22104 ft 389 kts 348°
2026-05-08 04:42 46.27719 -122.71355 22113 ft 389 kts 348°
2026-05-08 04:42 46.30402 -122.71883 22114 ft 389 kts 348°
2026-05-08 04:42 46.33064 -122.72260 22107 ft 391 kts 354°
2026-05-08 04:43 46.35782 -122.72366 21948 ft 389 kts 354°
2026-05-08 04:43 46.38464 -122.72459 21681 ft 381 kts 354°
2026-05-08 04:43 46.41092 -122.72547 21318 ft 376 kts 354°
2026-05-08 04:43 46.43702 -122.72639 20923 ft 372 kts 354°
2026-05-08 04:44 46.46286 -122.72734 20519 ft 370 kts 354°
2026-05-08 04:44 46.48856 -122.72830 20114 ft 368 kts 354°
2026-05-08 04:44 46.51407 -122.72923 19732 ft 365 kts 354°
2026-05-08 04:44 46.53941 -122.73012 19356 ft 362 kts 355°
2026-05-08 04:45 46.56453 -122.73099 18959 ft 360 kts 355°
2026-05-08 04:45 46.58947 -122.73185 18574 ft 357 kts 355°
2026-05-08 04:45 46.61395 -122.73274 18166 ft 355 kts 355°
2026-05-08 04:45 46.63856 -122.73367 17738 ft 353 kts 355°
2026-05-08 04:46 46.66303 -122.73456 17315 ft 351 kts 355°
2026-05-08 04:46 46.68740 -122.73541 16897 ft 348 kts 355°
2026-05-08 04:46 46.71157 -122.73625 16489 ft 346 kts 355°
2026-05-08 04:46 46.73564 -122.73709 16072 ft 344 kts 355°
2026-05-08 04:47 46.75955 -122.73662 15673 ft 344 kts
2026-05-08 04:47 46.78290 -122.72907 15277 ft 346 kts 17°
2026-05-08 04:47 46.80463 -122.71396 14886 ft 347 kts 30°
2026-05-08 04:47 46.82391 -122.69267 14491 ft 347 kts 37°
2026-05-08 04:48 46.84259 -122.67037 14115 ft 345 kts 37°
2026-05-08 04:48 46.86090 -122.64888 13913 ft 337 kts 36°
2026-05-08 04:48 46.87904 -122.62811 13780 ft 326 kts 36°
2026-05-08 04:48 46.89672 -122.60812 13628 ft 316 kts 35°
2026-05-08 04:49 46.91401 -122.58864 13332 ft 312 kts 35°
2026-05-08 04:49 46.93140 -122.57003 12982 ft 308 kts 28°
2026-05-08 04:49 46.95053 -122.55653 12631 ft 303 kts 16°
2026-05-08 04:49 46.97061 -122.54778 12275 ft 300 kts 13°
2026-05-08 04:50 46.99062 -122.53923 11924 ft 299 kts 14°
2026-05-08 04:50 47.01052 -122.53058 11579 ft 298 kts 14°
2026-05-08 04:50 47.03033 -122.52189 11240 ft 296 kts 14°
2026-05-08 04:50 47.05004 -122.51322 10904 ft 295 kts 14°
2026-05-08 04:51 47.06964 -122.50461 10575 ft 293 kts 14°
2026-05-08 04:51 47.08948 -122.49849 10240 ft 290 kts
2026-05-08 04:51 47.10950 -122.49494 9902 ft 289 kts
2026-05-08 04:51 47.12943 -122.49135 9567 ft 288 kts
2026-05-08 04:52 47.14924 -122.48775 9218 ft 286 kts
2026-05-08 04:52 47.16894 -122.48411 8869 ft 284 kts
2026-05-08 04:52 47.18855 -122.48049 8539 ft 283 kts
2026-05-08 04:52 47.20775 -122.47719 8205 ft 281 kts
2026-05-08 04:53 47.22740 -122.47415 7879 ft 279 kts
2026-05-08 04:53 47.24642 -122.47132 7564 ft 278 kts
2026-05-08 04:53 47.26562 -122.46848 7232 ft 276 kts
2026-05-08 04:53 47.28444 -122.46568 7107 ft 267 kts
2026-05-08 04:54 47.30261 -122.46290 6928 ft 260 kts
2026-05-08 04:54 47.32056 -122.46016 6652 ft 258 kts
2026-05-08 04:54 47.33838 -122.45746 6356 ft 256 kts
2026-05-08 04:54 47.35608 -122.45526 6065 ft 253 kts 357°
2026-05-08 04:55 47.37370 -122.45556 6005 ft 253 kts 358°
2026-05-08 04:55 47.39136 -122.45562 6010 ft 254 kts 358°
2026-05-08 04:55 47.40865 -122.45559 6001 ft 242 kts 358°
2026-05-08 04:55 47.42511 -122.45551 6008 ft 235 kts 358°
2026-05-08 04:56 47.44146 -122.45539 6010 ft 235 kts 359°
2026-05-08 04:56 47.45754 -122.45522 6009 ft 234 kts 358°
2026-05-08 04:56 47.47384 -122.45519 6009 ft 234 kts 358°
2026-05-08 04:56 47.49013 -122.45532 6011 ft 234 kts 358°
2026-05-08 04:57 47.50639 -122.45557 6041 ft 233 kts 358°
2026-05-08 04:57 47.52265 -122.45587 6004 ft 233 kts 358°
2026-05-08 04:57 47.53887 -122.45612 5998 ft 233 kts 358°
2026-05-08 04:57 47.55512 -122.45631 6002 ft 233 kts 358°
2026-05-08 04:58 47.57133 -122.45649 6001 ft 233 kts 358°
2026-05-08 04:58 47.58758 -122.45668 6004 ft 233 kts 358°
2026-05-08 04:58 47.60386 -122.45687 6000 ft 233 kts 358°
2026-05-08 04:58 47.62009 -122.45705 5999 ft 233 kts 358°
2026-05-08 04:59 47.63633 -122.45723 6003 ft 233 kts 358°
2026-05-08 04:59 47.65233 -122.45740 6006 ft 233 kts 358°
2026-05-08 04:59 47.66856 -122.45758 6007 ft 233 kts 358°
2026-05-08 04:59 47.68480 -122.45775 6009 ft 233 kts 358°
2026-05-08 05:00 47.70102 -122.45792 6003 ft 233 kts 358°
2026-05-08 05:00 47.71712 -122.45542 5999 ft 235 kts 18°
2026-05-08 05:00 47.73098 -122.44271 6010 ft 237 kts 46°
2026-05-08 05:00 47.73915 -122.42174 6010 ft 237 kts 76°
2026-05-08 05:01 47.73959 -122.39764 6010 ft 234 kts 104°
2026-05-08 05:01 47.73264 -122.37636 5732 ft 229 kts 133°
2026-05-08 05:01 47.72030 -122.36284 5583 ft 216 kts 159°
2026-05-08 05:01 47.70622 -122.35668 5320 ft 211 kts 167°
2026-05-08 05:02 47.69154 -122.35086 4743 ft 224 kts 166°
2026-05-08 05:02 47.67622 -122.34475 4246 ft 230 kts 166°
2026-05-08 05:02 47.66092 -122.33861 3972 ft 225 kts 166°
2026-05-08 05:02 47.64606 -122.33262 3760 ft 218 kts 166°
2026-05-08 05:03 47.63209 -122.32698 3561 ft 203 kts 166°
2026-05-08 05:03 47.61878 -122.32163 3419 ft 192 kts 166°
2026-05-08 05:03 47.60620 -122.31745 3245 ft 175 kts 176°
2026-05-08 05:03 47.59448 -122.31691 3014 ft 163 kts 180°
2026-05-08 05:04 47.58327 -122.31689 2804 ft 159 kts 181°
2026-05-08 05:04 47.57229 -122.31694 2594 ft 157 kts 181°
2026-05-08 05:04 47.56138 -122.31702 2382 ft 156 kts 180°
2026-05-08 05:04 47.55054 -122.31710 2173 ft 156 kts 180°
2026-05-08 05:05 47.53970 -122.31720 1964 ft 155 kts 180°
2026-05-08 05:05 47.52885 -122.31729 1750 ft 156 kts 180°
2026-05-08 05:05 47.51816 -122.31738 1539 ft 156 kts 180°
2026-05-08 05:05 47.50736 -122.31748 1326 ft 155 kts 180°
2026-05-08 05:06 47.49657 -122.31757 1104 ft 155 kts 180°
2026-05-08 05:06 47.48579 -122.31761 896 ft 158 kts 179°
2026-05-08 05:06 47.47465 -122.31765 690 ft 158 kts 180°
2026-05-08 05:06 47.46380 -122.31784 484 ft 153 kts 179°
2026-05-08 05:07 47.45359 -122.31798 406 ft 139 kts 179°
2026-05-08 05:07 47.44550 -122.31803 394 ft 75 kts 181°
2026-05-08 05:07 47.44253 -122.31709 394 ft 38 kts 150°
2026-05-08 05:07 47.44089 -122.31570 394 ft 19 kts 150°
2026-05-08 05:08 47.43972 -122.31472 394 ft 20 kts 150°
2026-05-08 05:08 47.43848 -122.31359 394 ft 21 kts 137°
2026-05-08 05:08 47.43809 -122.31158 394 ft 22 kts 90°
2026-05-08 05:08 47.43807 -122.30918 394 ft 25 kts 91°
2026-05-08 05:09 47.43814 -122.30672 394 ft 22 kts 68°
2026-05-08 05:09 47.43924 -122.30638 394 ft 15 kts 358°
2026-05-08 05:09 47.44036 -122.30639 394 ft 17 kts 360°
2026-05-08 05:09 47.44163 -122.30635 394 ft 20 kts
2026-05-08 05:10 47.44260 -122.30565 394 ft 13 kts 88°
2026-05-08 05:10 47.44236 -122.30462 394 ft 0 kts 114°